sat.trackr.live / text

‹ back to catalog

STARLINK-37086

NORAD 68253 · 2026-054X

PAYLOAD ACTIVE UNKNOWN

§ Identity

Operator
Country
US
Launch date
2026-03-17
Launch site
AFETR
Launch vehicle
Mass (kg)
RCS (m²)

Purposes: comms

External: N2YO · Heavens-Above · Gunter

§ Orbital elements

Epoch: 2026-09-19T22:31:33.699072Z

Period
93.85 min
Inclination
53.1584°
Eccentricity
0.0001308
Mean motion
15.34407361 rev/d
Perigee alt
461.8 km
Apogee alt
463.6 km
Semi-major
6,840.8 km
B*
4.8796e-4
RAAN
104.5615°
Arg perigee
92.1241°
Mean anomaly
267.9911°
Rev number
2,887

§ Raw data

STARLINK-370861 68253U 26054X   26262.93858448  .00016150  00000+0  48796-3 0  99972 68253  53.1584 104.5615 0001308  92.1241 267.9911 15.34407361 28879

JSON: /api/v1/satellites/68253 · /tle

For live sub-satellite position, see the globe view (requires WebGL).

§ Visibility from observer

Set your observer location to see the next 7 days of passes ≥ 10°. The values pass through the URL so the page stays shareable.

No JS? Fill the form by hand. The geolocation button needs JavaScript.